Location: Orinda
(37.8771°N, 122.1797°W)
Time: 04:44:56
(UTC+00:00)

ATLAS 2AS CENTAUR R/B - Pass Details

Date: 21 October 2019
Orbit: 926 x 1286 km, 63.7° (Epoch: 18 November)

Event Time Altitude Azimuth Distance (km) Brightness Sun altitude
Exits shadow 12:13:57 43° 300° (WNW) 1,732 3.4 -26.1°
Maximum altitude 12:14:34 44° 312° (NW) 1,718 3.4 -26.0°
Drops below altitude 10° 12:22:10 10° 22° (NNE) 3,282 5.6 -24.5°
Sets 12:25:10 0° 29° (NNE) 4,233 6.3 -23.9°
